Main page
METAR-TAF:

METAR-TAF

Airports :

Ted Stevens Anchorage International Airport

Anchorage, Alaska, United States

latitude: 61-10-28N, longitude: 149-59-46W, elevation: 44 m

Current weather observation

The report was made 1 hour and 4 minutes ago, at 02:53 UTC
Wind 10 kt from the North
Temperature -8°C
Humidity 52%
Pressure 1025 hPa
Visibility: 16.1 km
Few clouds at a height of 25000 ft

METAR: PANC 250253Z 36010KT 10SM FEW250 M08/M16 A3028 RMK AO2 SLP257 T10781161 58031

Time: 18:57 (03:57 UTC)

Forecast

The report was made 4 hours and 17 minutes ago, at 23:40 UTC
Forecast valid from 25 at 00 UTC to 26 at 06 UTC
Wind 11 kt from the North
Visibility: 10 km
Scattered clouds at a height of 20000 ft
From 25 at 1200 UTC
Wind 13 kt from the North with gusts up to 22 kt
Visibility: 10 km
Scattered clouds at a height of 10000 ft
Broken clouds at a height of 20000 ft

TAF: PANC 242340Z 2500/2606 01011KT P6SM SCT200 FM251200 01013G22KT P6SM SCT100 BKN200

Weather observations and forecasts of more than 4000 airports (METAR and TAF reports).

The available stations are represented by yellow and red dots on the map.

Hover mouse over dot to see the name of the station.

Then click to see weather observations and forecasts.

To change the map : click on the green buttons with a black cross to zoom in, on the green button with a dash to zoom out, or on the green arrows for adjacent maps.


METAR-TAF: